Weather History for Van Nuys, CA

Change the Weather History Date:

Monday, May 20, 2013

  Actual Average Record
Temperature  
Mean Temperature 77 °F -  
Max Temperature 96 °F 75 °F 98 °F (2000)
Min Temperature 59 °F 54 °F 51 °F (2002)
Cooling Degree Days 12    
Growing Degree Days 27 (Base 50)    
Moisture  
Dew Point 52 °F    
Average Humidity 53    
Maximum Humidity 78    
Minimum Humidity 9    
Precipitation  
Precipitation 0.00 in - - ()
Sea Level Pressure  
Sea Level Pressure 29.89 in    
Wind  
Wind Speed 3 mph (ESE)    
Max Wind Speed 13 mph    
Max Gust Speed -    
Visibility 10 miles    
Events      
Averages and records for this station are not official NWS values.
T = Trace of Precipitation, MM = Missing Value Source: NWS Daily Summary

Daily Weather History Graph

Daily Weather History Graph

Search for Another Location

Airport:

Trip Planner

Search our weather history database for the weather conditions in past years. The results will help you decide how hot, cold, wet, or windy it might be!

Date:

Astronomy

May. 20, 2013 Rise Set
Actual Time 5:48 AM PDT 7:52 PM PDT
Civil Twilight 5:20 AM PDT 8:21 PM PDT
Nautical Twilight 4:46 AM PDT 8:55 PM PDT
Astronomical Twilight 4:09 AM PDT 9:32 PM PDT
Moon 3:17 PM PDT (5/20) 2:33 AM PDT (5/20)
Length of Visible Light 15h 00m
Length of Day
14h 04m
Waxing Gibbous, 76% of the Moon is Illuminated
May 20
Waxing Gibbous
May 24
Full
May 31
Last Quarter
Jun 8
New
Jun 16
First Quarter

Hourly Weather History & Observations

Time (PDT) Temp. Heat Index Dew Point Humidity Pressure Visibility Wind Dir Wind Speed Gust Speed Precip Events Conditions
12:51 AM 64.0 °F - 53.1 °F 67% 29.90 in 10.0 mi Calm Calm - N/A   Clear
1:51 AM 62.1 °F - 54.0 °F 75% 29.90 in 10.0 mi Calm Calm - N/A   Clear
2:51 AM 62.1 °F - 53.1 °F 72% 29.89 in 10.0 mi SE 3.5 mph - N/A   Clear
3:51 AM 61.0 °F - 54.0 °F 78% 29.89 in 10.0 mi East 3.5 mph - N/A   Clear
4:51 AM 60.1 °F - 52.0 °F 75% 29.90 in 10.0 mi Calm Calm - N/A   Clear
5:51 AM 59.0 °F - 52.0 °F 78% 29.91 in 10.0 mi NNW 3.5 mph - N/A   Clear
6:51 AM 62.1 °F - 53.1 °F 72% 29.92 in 10.0 mi Calm Calm - N/A   Clear
7:51 AM 64.0 °F - 53.1 °F 67% 29.93 in 10.0 mi Calm Calm - N/A   Clear
9:51 AM 75.0 °F - 53.1 °F 46% 29.91 in 10.0 mi East 4.6 mph - N/A   Clear
11:51 AM 82.9 °F - 52.0 °F 34% 29.91 in 10.0 mi SE 6.9 mph - N/A   Clear
12:51 PM 86.0 °F - 51.1 °F 30% 29.90 in 10.0 mi Variable 5.8 mph - N/A   Clear
3:51 PM 95.0 °F - 26.1 °F 9% 29.84 in 10.0 mi SSE 12.7 mph - N/A   Clear
4:51 PM 89.1 °F - 46.9 °F 23% 29.85 in 10.0 mi ESE 9.2 mph - N/A   Clear
5:51 PM 84.9 °F 83.2 °F 53.1 °F 33% 29.85 in 10.0 mi SSE 5.8 mph - N/A   Clear
6:51 PM 84.0 °F - 51.1 °F 32% 29.85 in 10.0 mi East 5.8 mph - N/A   Clear
7:51 PM 78.1 °F - 53.1 °F 42% 29.87 in 10.0 mi ESE 4.6 mph - N/A   Partly Cloudy
8:51 PM 75.9 °F - 54.0 °F 46% 29.88 in 10.0 mi SE 4.6 mph - N/A   Clear
9:51 PM 73.0 °F - 55.0 °F 53% 29.89 in 10.0 mi ESE 4.6 mph - N/A   Clear
10:51 PM 71.1 °F - 55.0 °F 57% 29.90 in 10.0 mi ESE 4.6 mph - N/A   Clear
11:51 PM 68.0 °F - 55.9 °F 65% 29.90 in 10.0 mi ESE 8.1 mph - N/A   Clear